EXPRESS-AM44

Last updated on Tue Jun 17 2025 00:02:44 GMT+0000 (Coordinated Universal Time)

1 33595U 09007A 25167.57401177 -.00000078 00000+0 00000+0 0 9998 2 33595 2.5211 82.9530 0004914 4.7934 12.9742 1.00271386 48623
UTC large
Height (km)
Speed (km/s)
/
Latitude / Longitude
Inclination (degrees)
Orbital Period (minutes)
Azimuth
Elevation
Range (km)
Doppler Factor

Next 0 passes for location: London (51.5072 / 0.1276)

Sorry there are no passes over London.